Location: Banksville Park
(38.5557°N, 75.1182°W)
Time: 22:54:28
(UTC+00:00)

ASTEX 1 - Pass Details

Date: 19 September 2020
Orbit: 721 x 743 km, 92.7° (Epoch: 30 October)

Event Time Altitude Azimuth Distance (km) Brightness Sun altitude
Rises 09:07:52 0° 353° (N) 3,187 6.8 -19.6°
Reaches altitude 10° 09:10:28 10° 341° (NNW) 2,261 5.9 -19.2°
Enters shadow 09:14:18 27° 292° (WNW) 1,415 4.4 -18.5°
